Regional Weather Roundup
Issued by NWS

Home | Current Version | Previous Version | Text Only | Print | Product List | Glossary Off
Versions: 1 2 3 4 5 6 7 8 9 10 11 12 13 14 15 16 17 18 19 20 21 22 23 24 25 26 27 28 29 30 31 32 33 34 35 36 37 38 39 40 41 42 43 44 45 46 47 48 49 50

000
ASUS45 KPSR 271610
RWRAZ

ARIZONA HOURLY REGIONAL WEATHER ROUNDUP
NATIONAL WEATHER SERVICE PHOENIX AZ
900 AM MST SAT AUG 27 2016

NOTE: FAIR INDICATES FEW OR NO CLOUDS BELOW 12,000 FEET WITH NO
SIGNIFICANT WEATHER AND/OR OBSTRUCTIONS TO VISIBILITY.

AZZ001>003-036-271700-
NORTHWEST ARIZONA

CITY           SKY/WX    TMP DP  RH WIND       PRES   REMARKS
BULLHEAD CITY  CLOUDY    81  64  57 S9        29.99R
KINGMAN        PTSUNNY   66  54  65 SE16      30.13F
$$

AZZ004>008-015-016-018-271700-
NORTH CENTRAL ARIZONA

CITY           SKY/WX    TMP DP  RH WIND       PRES   REMARKS
GRAND CANYON   CLOUDY    55  50  83 CALM      30.29S
PRESCOTT       LGT RAIN  56  55  97 SE3       30.24S FOG
FLAGSTAFF      RAIN      49  48  97 S8        30.35S FOG
PAYSON         LGT RAIN  61  55  82 SW7       30.25R
PAGE           CLOUDY    62  54  74 NW6       30.18R
$$

AZZ009>014-017-271700-
NORTHEAST ARIZONA

CITY           SKY/WX    TMP DP  RH WIND       PRES   REMARKS
WINSLOW        LGT RAIN  57  54  89 SW5       30.24R
SAINT JOHNS    MOSUNNY   71  49  45 SE6       30.20F
SHOW LOW       MOSUNNY   66  46  48 W8        30.26S
$$

AZZ023-271700-
GREATER PHOENIX AREA

CITY           SKY/WX    TMP DP  RH WIND       PRES   REMARKS
PHOENIX        MOSUNNY   85  60  42 E13       29.94S
BUCKEYE        MOSUNNY   86  55  35 E10       29.96R
GLENDALE       PTSUNNY   82  61  47 N14       29.98R
LUKE AFB       SUNNY     80  60  50 N20       29.96R
DEER VALLEY    MOSUNNY   80  59  48 N9        29.98R
SCOTTSDALE     MOSUNNY   83  58  42 NE10      29.98S
MESA-FALCON    PTSUNNY  N/A N/A N/A N17G29    29.96R
MESA-GATEWAY   PTSUNNY   82  57  42 N9        29.98R
CHANDLER       PTSUNNY   82  59  44 N20       29.96R
$$

AZZ027-028-271700-
SOUTHWEST MARICOPA COUNTY AND PINAL COUNTY

CITY           SKY/WX    TMP DP  RH WIND       PRES   REMARKS
CASA GRANDE    MOSUNNY   90  43  19 CALM      29.98S
GILA BEND      FAIR      88  45  22 N6        29.92R
$$

AZZ503-504-507>509-271700-
SOUTHEAST ARIZONA

CITY           SKY/WX    TMP DP  RH WIND       PRES   REMARKS
TUCSON         MOSUNNY   81  51  35 CALM      30.06S
DAVIS-MONTHAN  CLOUDY    79  53  39 VRB5      30.05R
RYAN FIELD     SUNNY     79  54  41 S3        30.05R
NOGALES        SUNNY     78  53  41 VRB5      30.13S
SIERRA VISTA   PTSUNNY   75  53  45 VRB1      30.18S
DOUGLAS        PTSUNNY   75  56  51 S5        30.14S
SAFFORD        MOSUNNY   78  53  41 E12       30.06S
$$

AZZ020-021-025-026-031-271700-
SOUTHWEST ARIZONA

CITY           SKY/WX    TMP DP  RH WIND       PRES   REMARKS
YUMA           SUNNY     89  57  33 NE8       29.87R
$$

CAZ031-033-041-043-047-048-061-271700-
SOUTHERN CALIFORNIA

CITY           SKY/WX    TMP DP  RH WIND       PRES   REMARKS
DOWNTOWN L.A.  CLOUDY    67  58  72 CALM      30.00R
L.A. AIRPORT   CLOUDY    68  56  65 S3        30.00R
SAN DIEGO      CLOUDY    68  58  70 W5        30.02R
BURBANK        CLOUDY    65  56  72 SE5       30.00R HAZE
ONTARIO        CLOUDY    63  56  78 CALM      30.01R HAZE
RIVERSIDE      CLOUDY    64  56  75 E3        30.01S
PALM SPRINGS   MOSUNNY   80  53  39 CALM      29.92R
EL CENTRO NAS  SUNNY     85  62  46 NE3       29.87R
IMPERIAL       SUNNY     86  65  49 E5        29.85R
BLYTHE         SUNNY     88  60  38 NE21      29.90R
$$

NVZ020-UTZ003-271700-
SOUTHERN NEVADA-UTAH

CITY           SKY/WX    TMP DP  RH WIND       PRES   REMARKS
LAS VEGAS      CLOUDY    74  52  46 W3        30.01F
SALT LAKE CITY MOSUNNY   75  43  31 SE12      30.07S
$$

NMZ009-TXZ055-271700-
NEW MEXICO-WEST TEXAS

CITY           SKY/WX    TMP DP  RH WIND       PRES   REMARKS
ALBUQUERQUE    MOSUNNY   71  51  49 SW5       30.22S
EL PASO        MOSUNNY   77  61  57 VRB5      30.12R
$$


........................KEY........................
SKY/WX - SKY CONDITION/WEATHER
TMP    - TEMPERATURE IN FAHRENHEIT
DP     - DEW POINT IN FAHRENHEIT
RH     - RELATIVE HUMIDITY IN PERCENT
WIND   - DIRECTION AND SPEED IN MILES PER HOUR (MPH)
VRB    - VARIABLE WIND DIRECTION
PRES   - MEAN SEA LEVEL PRESSURE IN INCHES OF MERCURY
         F - FALLING PRESSURE   R - RISING PRESSURE
         S - STEADY PRESSURE
VSB    - VISIBILITY IN MILES
HX     - HEAT INDEX IN FAHRENHEIT
WCI    - WIND CHILL INDEX IN FAHRENHEIT
TC     - TEMPERATURE IN CELSIUS WHICH IS ALSO KNOWN AS
         TEMPERATURE IN CENTIGRADE
AFB    - AIR FORCE BASE
         LUKE AFB IS LUKE AIR FORCE BASE
         DAVIS-MONTHAN IS DAVIS-MONTHAN AIR FORCE BASE
NAS    - NAVAL AIR STATION
         EL CENTRO NAS IS EL CENTRO NAVAL AIR STATION
N/A    - NOT AVAILABLE




USA.gov is the U.S. government's official web portal to all federal, state and local government web resources and services.